Weather History for LGPZ - November, 2012

Change the Weather History Date:

Thursday, November 1, 2012

  Actual Average Record
Temperature  
Mean Temperature 66 °F -  
Max Temperature 71 °F 63 °F 82 °F (2008)
Min Temperature 62 °F 51 °F 48 °F (2011)
Cooling Degree Days 2    
Growing Degree Days 16 (Base 50)    
Moisture  
Dew Point 59 °F    
Average Humidity 79    
Maximum Humidity 100    
Minimum Humidity 51    
Precipitation  
Precipitation 0.71 in - - ()
Sea Level Pressure  
Sea Level Pressure 29.71 in    
Wind  
Wind Speed 10 mph ()    
Max Wind Speed 25 mph    
Max Gust Speed 37 mph    
Visibility 5.8 miles    
Events Rain , Thunderstorm    
Averages and records for this station are not official NWS values.
T = Trace of Precipitation, MM = Missing Value Source: Averaged Metar Reports

Daily Weather History Graph

Daily Weather History Graph

Search for Another Location

Airport or City:

Trip Planner

Search our weather history database for the weather conditions in past years. The results will help you decide how hot, cold, wet, or windy it might be!

Date:

Astronomy

Nov. 01, 2012 Rise Set
Actual Time 7:04 AM EET 5:36 PM EET
Civil Twilight 6:36 AM EET 6:03 PM EET
Nautical Twilight 6:05 AM EET 6:35 PM EET
Astronomical Twilight 5:34 AM EET 7:06 PM EET
Moon 7:19 PM EET (11/1) 9:20 AM EET (11/1)
Length of Visible Light 11h 27m
Length of Day
10h 31m
Waning Gibbous, 94% of the Moon is Illuminated
Nov 1
Waning Gibbous
Nov 7
Last Quarter
Nov 14
New
Nov 20
First Quarter
Nov 28
Full

Hourly Weather History & Observations

Time (EET) Temp. Dew Point Humidity Pressure Visibility Wind Dir Wind Speed Gust Speed Precip Events Conditions
12:50 AM 69.8 °F 51.8 °F 53% 29.80 in 6.2 mi South 9.2 mph 20.7 mph N/A   Overcast
1:50 AM 68.0 °F 53.6 °F 60% 29.80 in 6.2 mi South 11.5 mph 23.0 mph N/A   Overcast
2:00 AM 68 °F 54 °F 51% 29.81 in 6 mi South 11.5 mph - -   Overcast
2:50 AM 66.2 °F 53.6 °F 64% 29.80 in 6.2 mi SE 13.8 mph - N/A   Overcast
3:50 AM 62.6 °F 55.4 °F 77% 29.77 in 6.2 mi SE 12.7 mph 24.2 mph N/A   Overcast
4:50 AM 62.6 °F 57.2 °F 82% 29.77 in 6.2 mi East 5.8 mph - N/A Rain Light Rain
6:20 AM 64.4 °F 57.2 °F 77% 29.74 in 6.2 mi East 15.0 mph - N/A   Overcast
6:50 AM 66.2 °F 57.2 °F 73% 29.71 in 6.2 mi East 8.1 mph - N/A   Overcast
7:20 AM 66.2 °F 57.2 °F 73% 29.71 in 6.2 mi ENE 12.7 mph - N/A   Overcast
7:50 AM 69.8 °F 57.2 °F 64% 29.68 in 6.2 mi SE 16.1 mph - N/A   Overcast
8:00 AM 69 °F 57 °F 56% 29.70 in 6 mi SE 16.1 mph - -   Partly Cloudy
8:20 AM 69.8 °F 57.2 °F 64% 29.68 in 6.2 mi SE 19.6 mph 31.1 mph N/A   Overcast
8:50 AM 69.8 °F 57.2 °F 64% 29.65 in 6.2 mi SSE 23.0 mph 34.5 mph N/A   Overcast
9:20 AM 69.8 °F 57.2 °F 64% 29.65 in 6.2 mi SSE 25.3 mph 36.8 mph N/A   Overcast
9:50 AM 71.6 °F 57.2 °F 60% 29.65 in 6.2 mi SSE 23.0 mph 34.5 mph N/A   Overcast
10:20 AM 71.6 °F 57.2 °F 60% 29.68 in 6.2 mi South 23.0 mph 34.5 mph N/A   Overcast
10:50 AM 71.6 °F 59.0 °F 64% 29.68 in 6.2 mi South 17.3 mph 28.8 mph N/A   Mostly Cloudy
11:20 AM 69.8 °F 60.8 °F 73% 29.68 in 5.0 mi South 18.4 mph 29.9 mph N/A Rain Rain
11:50 AM 66.2 °F 60.8 °F 83% 29.68 in 4.3 mi SSE 10.4 mph - N/A Rain , Thunderstorm Thunderstorms and Rain
12:20 PM 66.2 °F 62.6 °F 88% 29.65 in 3.1 mi SSE 4.6 mph - N/A Rain , Thunderstorm Heavy Thunderstorms and Rain
12:50 PM 64.4 °F 62.6 °F 94% 29.71 in 3.1 mi West 13.8 mph - N/A Rain , Thunderstorm Thunderstorms and Rain
1:20 PM 62.6 °F 62.6 °F 100% 29.68 in 4.3 mi ESE 11.5 mph - N/A Rain , Thunderstorm Thunderstorms and Rain
1:50 PM 62.6 °F 60.8 °F 94% 29.68 in 5.0 mi East 6.9 mph - N/A Rain , Thunderstorm Light Thunderstorms and Rain
2:00 PM 63 °F 60 °F 88% 29.69 in 5 mi East 6.9 mph - - Rain , Thunderstorm Thunderstorms and Rain
2:20 PM 62.6 °F 60.8 °F 94% 29.71 in 6.2 mi East 4.6 mph - N/A   Overcast
2:50 PM 62.6 °F 60.8 °F 94% 29.68 in 6.2 mi ENE 4.6 mph - N/A   Overcast
3:50 PM 62.6 °F 60.8 °F 94% 29.68 in 6.2 mi SE 4.6 mph - N/A   Overcast
4:20 PM 66.2 °F 60.8 °F 83% 29.68 in 6.2 mi ESE 5.8 mph - N/A   Mostly Cloudy
4:50 PM 66.2 °F 60.8 °F 83% 29.68 in 6.2 mi Calm Calm - N/A   Mostly Cloudy
5:20 PM 64.4 °F 60.8 °F 88% 29.68 in 6.2 mi Calm Calm - N/A   Mostly Cloudy
5:50 PM 64.4 °F 60.8 °F 88% 29.68 in 6.2 mi WNW 4.6 mph - N/A   Mostly Cloudy
6:20 PM 64.4 °F 60.8 °F 88% 29.68 in 6.2 mi NNW 4.6 mph - N/A   Mostly Cloudy
6:50 PM 64.4 °F 60.8 °F 88% 29.71 in 6.2 mi Variable 3.5 mph - N/A   Mostly Cloudy
7:20 PM 64.4 °F 60.8 °F 88% 29.71 in 6.2 mi Variable 3.5 mph - N/A   Mostly Cloudy
7:50 PM 64.4 °F 60.8 °F 88% 29.71 in 6.2 mi Variable 3.5 mph - N/A   Mostly Cloudy
8:00 PM 64 °F 61 °F 87% 29.74 in 6 mi 3.5 mph - -   Mostly Cloudy
8:50 PM 64.4 °F 60.8 °F 88% 29.74 in 6.2 mi Calm Calm - N/A   Mostly Cloudy
9:50 PM 64.4 °F 60.8 °F 88% 29.74 in 6.2 mi ENE 6.9 mph - N/A   Scattered Clouds
10:50 PM 62.6 °F 59.0 °F 88% 29.77 in 6.2 mi ENE 5.8 mph - N/A   Partly Cloudy
11:50 PM 62.6 °F 59.0 °F 88% 29.77 in 6.2 mi ENE 5.8 mph - N/A   Partly Cloudy